SCP
0 0 0 0 0 0 0 0 0 0 0 0 0 0 0 0 0 0 0 0 0 0 0 0 0 0 1 0 0 0 0 1 1 0 0 0 0 0 0 0 0 0 0
0 0 0 0 0 0 0 0 0 0 0 0 0 0 0 0 0 0 0 0 0 0 0 0 0 0 0 0 0 0 1 1 1 0 0 0 0 0 0 0 0 0 0
0 0 0 0 0 0 0 0 0 0 0 0 0 0 0 0 0 0 0 0 0 0 0 0 0 0 0 0 0 0 1 1 1 0 0 0 0 0 0 0 0 0 0
0 0 0 0 0 0 0 0 0 0 0 0 0 0 0 0 0 0 0 0 0 0 0 0 0 0 0 0 0 0 1 1 1 0 0 0 0 0 0 0 0 1 1
0 0 0 0 0 0 0 0 0 0 0 0 0 0 0 0 0 0 0 0 0 0 0 0 0 0 0 0 0 0 0 1 1 0 0 0 0 0 0 0 0 1 1
0 0 0 0 0 0 0 0 0 0 0 0 0 0 0 0 0 0 0 0 0 0 0 0 0 0 0 0 0 0 0 0 0 0 0 0 0 0 0 0 0 0 0
0 0 0 0 0 0 0 0 0 0 0 0 0 0 0 0 0 0 0 0 0 0 0 0 0 0 0 0 0 0 0 0 0 0 0 0 0 0 0 0 0 0 0
0 0 0 0 0 0 0 0 0 0 0 0 0 0 0 0 0 0 0 0 0 0 0 0 0 0 0 0 0 0 0 0 0 0 0 0 0 0 0 0 0 0 0
0 0 0 0 0 0 0 0 0 0 0 0 0 0 0 0 0 0 0 0 0 0 0 0 0 0 0 0 0 0 0 0 0 0 0 0 0 0 0 0 0 0 0
0 0 0 0 0 0 0 0 0 0 0 0 0 0 0 0 0 0 0 0 0 0 0 0 0 0 0 0 0 0 0 0 0 0 0 0 0 0 0 0 0 0 0
0 0 0 0 0 0 0 0 0 0 0 0 0 0 0 0 0 0 0 0 0 0 0 0 0 0 0 0 0 0 0 0 0 0 0 0 0 0 0 0 0 0 0
0 0 0 0 0 0 0 0 0 0 0 0 0 0 0 0 0 0 0 0 0 0 0 0 0 0 0 0 0 0 0 0 0 0 0 0 0 0 0 0 0 0 0
0 0 0 0 0 0 0 0 0 0 0 0 0 0 0 0 0 0 0 0 0 0 0 0 0 0 0 0 0 0 0 0 0 0 0 0 0 0 0 0 0 0 0
0 0 0 0 0 0 0 0 0 0 0 0 0 0 0 0 0 0 0 0 0 0 0 0 0 0 0 0 0 0 0 0 0 0 0 0 0 0 0 0 0 0 0
0 0 0 0 0 0 0 0 0 0 0 0 0 0 0 0 0 0 0 0 0 0 0 0 0 0 0 0 0 0 0 0 0 0 0 0 0 0 0 0 0 0 0
0 0 0 0 0 0 0 0 0 0 0 0 0 0 0 0 0 0 0 0 0 0 0 0 0 0 0 0 0 0 0 0 0 0 0 0 0 0 0 0 0 0 0
0 0 0 0 0 0 0 0 0 0 0 0 0 0 0 0 0 0 0 0 0 0 0 0 0 0 0 0 0 0 0 0 0 0 0 0 0 0 0 0 0 0 0
0 0 0 0 0 0 0 0 0 0 0 0 0 0 0 0 0 0 0 0 0 0 0 0 0 0 0 0 0 0 0 0 0 0 0 0 0 0 0 0 0 0 0
0 0 0 0 0 0 0 0 0 0 0 0 0 0 0 0 0 0 0 0 0 0 0 0 0 0 0 0 0 0 0 0 0 0 0 0 0 0 0 0 0 0 0
0 0 0 0 0 0 0 0 0 0 0 0 0 0 0 0 0 0 0 0 0 0 0 0 0 0 0 0 0 0 0 0 0 0 0 0 0 0 0 0 0 0 0
0 0 0 0 0 0 0 0 0 0 0 0 0 0 0 0 0 0 0 0 0 0 0 0 0 0 0 0 0 0 0 0 0 0 0 0 0 0 0 0 0 0 0
0 0 0 0 0 0 0 0 0 0 0 0 0 0 0 0 0 0 0 0 0 0 0 0 0 0 0 0 0 0 0 0 0 0 0 0 0 0 0 0 0 0 0
0 0 0 0 0 0 0 0 0 0 0 0 0 0 0 0 0 0 0 0 0 0 0 0 0 0 0 0 0 0 0 0 0 0 0 0 0 0 0 0 0 0 0
0 0 0 0 0 0 0 0 0 0 0 0 0 0 0 0 0 0 0 0 0 0 0 0 0 0 0 0 0 0 0 0 0 0 0 0 0 0 0 0 0 0 0
0 0 0 0 0 0 0 0 0 0 0 0 0 0 0 0 0 0 0 0 0 0 0 0 0 0 0 0 0 0 0 0 0 0 0 0 0 0 0 0 0 0 0
0 0 0 0 0 0 0 0 0 0 0 0 0 0 0 0 0 0 0 0 0 0 0 0 0 0 0 0 0 0 0 0 0 0 0 0 0 0 0 0 0 0 0
Wind_Speed
5 5 5 4 4 4 3 2 2 2 1 1 2 2 3 3 3 3 3 3 3 2 1 1 2 2 1 2 2 1 1 1 1 0 1 2 1 2 2 3 3 4 4
5 4 4 4 4 3 2 2 1 1 1 1 1 2 2 3 3 3 4 3 3 3 2 1 2 2 1 1 1 0 0 1 1 1 1 1 2 1 2 2 3 4 3
9 6 5 4 4 3 2 2 1 1 2 2 2 2 2 3 3 4 4 4 4 3 2 2 2 1 1 1 1 1 1 1 1 1 2 2 2 1 1 1 2 3 3
7 6 5 4 4 3 3 3 1 0 2 2 2 2 2 2 3 3 3 5 4 3 2 2 2 1 1 1 2 1 1 1 1 1 1 2 2 1 1 1 1 2 3
8 7 6 6 4 4 3 2 1 1 2 2 2 2 1 2 3 3 4 4 4 4 3 2 2 2 1 1 1 1 1 1 2 1 1 0 0 1 2 1 1 0 1
7 7 5 5 3 3 2 2 1 1 2 2 2 1 2 2 3 4 4 4 3 3 4 3 2 2 2 2 2 1 1 2 2 1 2 2 1 1 2 1 1 1 1
7 7 6 5 4 4 3 2 1 1 2 2 2 2 2 2 2 3 3 3 3 3 4 3 2 2 2 2 1 1 1 2 2 2 2 2 2 2 2 2 1 1 1
7 7 7 6 5 5 4 2 2 2 2 2 2 2 2 1 2 3 2 3 2 3 4 3 3 3 3 2 1 1 1 1 1 2 2 2 2 2 2 3 3 1 1
7 7 7 6 6 5 5 4 3 2 2 2 2 2 2 2 3 3 3 2 3 3 3 3 3 3 3 2 1 1 1 0 1 1 2 1 2 2 2 2 3 3 2
6 7 6 6 5 5 4 4 3 2 2 1 1 1 2 2 2 3 3 3 4 3 4 4 3 3 3 2 1 1 1 0 0 1 1 1 1 1 1 2 2 2 3
7 7 6 6 5 4 4 3 3 2 1 1 1 1 2 2 2 3 3 3 3 3 3 3 3 3 3 2 1 1 1 1 1 1 0 1 1 1 1 1 1 2 2
7 6 6 5 4 4 4 4 3 3 2 2 1 1 1 2 3 3 4 3 3 3 3 3 3 3 3 2 1 1 1 1 1 1 1 1 0 0 1 1 1 2 2
6 5 5 5 5 5 4 4 3 3 3 2 1 0 1 2 3 3 3 3 3 4 4 3 3 3 3 2 1 1 1 1 0 0 0 1 1 1 1 1 1 1 1
7 6 5 5 5 5 5 4 4 4 3 2 1 1 1 2 2 3 3 3 3 3 4 4 3 3 2 2 1 1 1 1 1 1 1 1 1 2 2 1 1 1 1
6 7 7 6 5 4 4 4 4 3 3 2 2 2 2 1 2 2 3 3 3 3 3 3 4 4 2 2 1 1 1 1 1 2 1 1 2 2 2 2 2 2 2
7 7 7 6 6 5 5 4 4 4 3 3 3 2 1 1 1 2 2 3 3 3 3 4 4 4 3 5 4 1 1 1 1 2 2 2 2 2 3 3 3 3 3
7 7 7 7 7 6 6 5 5 4 3 3 2 2 1 1 2 2 2 2 3 3 3 3 3 4 5 6 6 4 1 1 1 1 1 1 2 2 1 2 3 4 5
6 6 6 6 5 5 5 4 4 4 3 2 2 2 2 2 2 1 2 2 2 2 2 3 3 3 5 6 5 4 2 1 2 1 1 1 2 2 1 1 1 2 3
6 6 6 5 5 5 5 5 4 3 3 3 3 3 3 2 2 2 3 2 2 2 2 2 3 3 5 6 5 3 1 2 2 2 2 1 1 3 2 0 1 2 3
5 4 4 4 5 4 5 5 4 4 4 5 5 4 3 3 3 4 3 2 2 3 3 3 3 3 4 5 4 2 1 1 2 2 3 3 3 3 2 0 1 2 3
5 5 5 5 4 4 5 5 4 4 5 4 4 3 3 4 4 3 3 2 2 2 3 3 3 3 4 5 5 1 1 1 1 2 2 3 5 4 4 2 2 4 4
5 5 5 4 3 4 5 4 3 4 3 3 3 3 4 3 3 3 3 2 2 2 3 3 4 3 4 4 4 3 2 2 1 2 2 3 5 6 6 4 4 4 2
5 4 5 4 2 2 4 4 3 2 2 2 2 3 3 3 3 3 3 2 2 2 3 2 3 4 3 4 6 5 4 3 2 2 4 5 6 6 4 5 5 3 1
4 4 5 4 2 1 2 2 2 2 2 2 2 2 2 3 3 3 3 3 3 3 3 3 4 4 3 3 3 3 2 3 2 2 4 5 5 4 4 4 3 2 2
4 5 5 5 3 2 1 0 0 1 1 1 2 2 2 3 3 3 3 4 5 5 4 4 4 3 4 6 6 4 3 3 3 1 1 2 2 3 3 3 3 2 2
5 5 5 4 2 2 1 1 0 1 1 0 2 2 2 2 2 3 4 5 6 8 9 8 6 5 8 9 7 8 7 6 4 2 1 2 2 3 3 3 3 3 2
Wind_Direction
174 156 148 134 116 99 89 78 51 4 9 355 344 331 319 316 322 318 309 308 306 305 295 294 300 301 276 272 273 244 242 251 181 127 321 309 254 205 192 180 178 196 202
153 159 151 132 123 119 102 83 51 9 350 306 280 267 281 292 297 311 324 320 315 310 301 290 285 281 274 295 289 214 193 248 166 149 126 328 330 304 202 175 187 196 192
164 167 155 146 132 128 120 104 82 22 337 326 329 341 348 336 337 333 329 322 322 319 309 307 298 290 248 260 258 215 172 221 265 177 161 167 221 283 303 197 191 185 189
159 162 158 154 151 156 140 129 121 346 330 347 6 357 349 322 297 301 308 318 326 325 319 323 324 305 278 259 260 214 181 171 199 283 214 191 181 170 300 312 213 189 189
161 164 163 160 158 156 148 144 120 337 334 354 12 15 351 299 302 319 331 333 333 337 338 331 337 327 302 270 269 270 202 179 181 190 202 197 153 159 164 250 288 266 221
162 161 160 151 151 155 147 141 122 315 326 347 4 20 350 334 342 340 338 332 328 328 331 330 332 320 310 287 268 253 221 205 190 190 188 183 181 189 164 187 231 247 250
162 161 162 163 166 169 170 163 159 288 311 331 338 334 327 326 326 318 320 323 324 317 313 323 321 311 304 299 282 251 236 211 195 206 212 210 207 190 169 165 185 223 265
175 175 178 179 181 184 183 182 190 250 292 310 314 318 321 319 310 312 309 311 299 293 305 318 321 319 316 316 311 274 248 206 199 220 217 211 219 196 185 174 162 165 267
186 184 183 184 186 190 196 196 197 233 276 290 308 327 329 330 322 321 326 318 306 311 332 335 333 334 335 333 338 319 280 225 198 221 223 220 220 209 200 182 169 164 190
187 186 186 189 193 195 198 198 195 211 238 263 303 334 327 326 326 335 333 325 321 330 340 339 342 344 342 346 0 344 327 2 288 223 227 235 228 215 204 190 188 178 174
187 187 191 194 191 186 187 198 204 202 216 242 292 344 328 331 342 340 326 322 327 334 339 334 338 343 343 347 13 4 19 30 349 335 128 261 231 202 217 190 176 183 169
184 184 186 186 184 184 189 197 197 196 214 217 209 299 317 338 345 338 330 330 332 335 340 344 347 345 347 348 2 354 15 26 345 333 24 302 286 236 218 177 187 195 187
179 179 182 188 193 192 194 198 198 201 210 195 173 312 327 330 330 328 334 343 344 344 350 359 352 342 336 338 336 342 342 347 301 267 235 259 225 237 239 213 212 215 210
181 182 192 202 203 198 197 196 201 200 192 175 168 240 284 290 302 321 341 347 348 352 350 351 343 338 342 346 348 8 2 351 331 295 250 248 227 224 212 215 219 205 194
188 190 195 202 203 201 206 201 201 201 185 170 187 239 266 289 316 333 341 346 347 351 346 348 348 346 349 356 357 347 345 337 330 323 302 274 266 242 218 212 204 189 192
195 195 194 192 193 194 199 197 199 202 177 173 202 227 261 306 316 318 332 343 341 341 350 349 347 350 349 355 360 359 350 328 312 310 312 302 292 276 269 256 228 209 204
193 191 191 192 193 194 188 189 196 188 171 182 206 217 225 258 288 313 336 328 324 333 338 338 343 338 331 345 357 3 22 349 315 289 302 315 325 317 290 273 259 250 241
188 189 188 188 189 186 183 178 166 165 171 186 211 221 222 248 277 308 307 300 304 311 313 320 326 325 325 340 347 357 20 15 359 340 300 296 316 314 300 278 284 271 258
182 185 183 177 174 175 174 156 158 169 178 201 219 224 218 230 255 272 276 273 285 295 296 296 310 315 314 328 340 3 27 17 354 347 341 319 309 323 341 274 265 300 299
162 161 156 145 156 175 157 147 165 177 204 219 224 223 217 221 236 250 259 261 256 270 286 296 293 292 298 315 322 348 58 10 334 338 339 331 325 325 348 318 251 270 283
157 148 141 147 168 163 145 149 170 205 223 224 222 225 226 228 235 248 256 262 273 293 298 297 294 290 287 304 307 293 141 218 292 314 320 317 327 330 325 312 261 266 278
147 144 140 151 163 152 143 152 198 226 220 212 218 234 240 244 237 236 259 265 267 286 293 298 300 293 287 287 290 271 229 201 209 270 286 298 314 321 320 312 292 295 306
150 144 142 139 130 144 143 160 226 220 191 195 233 254 263 259 250 235 250 265 261 261 276 278 282 288 287 285 281 273 260 237 222 258 277 297 311 320 320 308 306 311 305
149 138 131 130 133 136 133 172 216 193 171 205 251 268 275 282 277 258 244 242 250 254 264 266 268 275 282 276 274 270 268 268 268 281 297 308 317 312 297 303 308 294 259
143 135 137 143 156 149 137 171 160 138 163 227 267 281 275 274 279 274 253 242 239 228 230 242 242 250 272 266 240 219 227 225 232 253 315 327 328 324 317 311 299 286 277
139 134 137 140 139 116 78 1 3 142 148 246 292 291 290 287 284 288 299 276 262 272 259 252 249 249 251 270 259 239 235 229 215 184 255 273 276 278 283 290 295 287 263